This demonstration page uses our WeatherBlox Daily Observations layout. Learn more.

Left ArrowRight Arrow

Hourly Observations for May 26, 2019

Temp ( °F °C ) Dew Point ( °F °C ) Humidity (%) Winds ( mph kmh ) Pressure ( in mb ) Visibility ( mi km ) Precip ( " mm )
12:15 am 00:15 Partly Cloudy 62 16.5 59 15 91 91 E 10 17 29.95 1014 10 16 N/A
12:35 am 00:35 Clear 60 15.8 59 15.1 96 96 ESE 7 11 29.96 1015 10 16 N/A
12:55 am 00:55 Clear 60 15.7 60 15.3 97 97 SE 9 15 29.97 1015 10 16 N/A
1:15 am 01:15 Clear 60 15.6 59 15 96 96 SSE 6 9 29.97 1015 10 16 N/A
1:35 am 01:35 Clear 59 15 59 14.9 99 99 ESE 7 11 29.98 1015 10 16 N/A
1:55 am 01:55 Clear 60 15.3 59 15 98 98 SSE 5 7 29.98 1015 10 16 N/A
2:15 am 02:15 Clear 58 14.6 58 14.2 97 97 N N/A 29.98 1015 10 16 N/A
2:35 am 02:35 Clear 58 14.2 57 13.9 98 98 N N/A 29.98 1015 10 16 N/A
2:55 am 02:55 Clear 56 13.6 56 13.6 100 100 S 3 6 29.98 1015 10 16 N/A
3:15 am 03:15 Clear 58 14.4 58 14.2 99 99 N N/A 29.97 1015 10 16 N/A
3:35 am 03:35 Clear 56 13.2 56 13.2 100 100 N N/A 29.97 1015 10 16 N/A
3:55 am 03:55 Clear 55 12.9 55 12.9 100 100 N N/A 29.98 1015 10 16 N/A
4:15 am 04:15 Partly Cloudy 55 12.5 55 12.5 100 100 ENE 8 13 29.99 1016 7 11 N/A
4:35 am 04:35 Clear 55 12.9 55 12.9 100 100 E 7 11 29.99 1015 7 11 N/A
4:55 am 04:55 Clear 55 13 55 13 100 100 E 7 11 29.99 1015 10 16 N/A
5:15 am 05:15 Clear 55 12.6 55 12.6 100 100 E 5 7 29.99 1016 10 16 N/A
5:35 am 05:35 Clear 54 12.1 54 12.1 100 100 E 5 7 29.98 1015 10 16 N/A
5:55 am 05:55 Clear 55 12.9 55 12.9 100 100 E 8 13 29.98 1015 7 11 N/A
6:15 am 06:15 Sunny 56 13.5 56 13.5 100 100 E 10 17 29.96 1015 7 11 N/A
6:35 am 06:35 Sunny with Mist and Fog 55 13 55 13 100 100 ENE 10 17 29.97 1015 5 8 N/A
6:55 am 06:55 Sunny 56 13.4 56 13.4 100 100 E 12 19 29.95 1014 7 11 N/A
7:15 am 07:15 Sunny 57 14 55 12.6 91 91 ESE 12 19 29.98 1015 10 16 N/A
7:35 am 07:35 Sunny 58 14.5 55 12.6 88 88 SE 9 15 29.99 1016 10 16 N/A
7:55 am 07:55 Sunny 59 14.9 55 12.6 86 86 ESE 15 24 30.00 1016 10 16 N/A
8:15 am 08:15 Sunny 59 15.1 55 12.7 86 86 SE 13 20 30.00 1016 10 16 N/A
8:35 am 08:35 Partly Cloudy 61 16 56 13.3 84 84 SE 14 22 30.00 1016 10 16 N/A
8:55 am 08:55 Partly Cloudy 62 16.9 57 14 83 83 SE 17 28 30.00 1016 10 16 N/A
9:15 am 09:15 Partly Cloudy 65 18.2 59 15.1 82 82 SE 15 24 29.98 1015 10 16 N/A
9:35 am 09:35 Mostly Cloudy with Rain 63 17.4 60 15.4 88 88 SE 12 19 29.99 1016 7 11 0.01 0.25
9:55 am 09:55 Mostly Cloudy with Nearby Thunderstorms 63 17.4 61 16.1 92 92 ESE 12 19 30.00 1016 10 16 0.01 0.25
10:15 am 10:15 Partly Cloudy 66 18.9 61 16.1 84 84 E 15 24 29.98 1015 10 16 N/A
10:35 am 10:35 Mostly Cloudy 67 19.5 61 16.2 81 81 ESE 16 26 29.97 1015 10 16 N/A
10:55 am 10:55 Mostly Cloudy 67 19.7 62 16.5 82 82 ESE 15 24 29.97 1015 10 16 N/A
11:15 am 11:15 Cloudy 67 19.6 61 16.3 81 81 ESE 15 24 29.98 1015 10 16 N/A
11:35 am 11:35 Cloudy 67 19.3 61 16.2 82 82 SE 15 24 29.98 1015 10 16 N/A
11:55 am 11:55 Cloudy 67 19.3 61 16.1 82 82 SE 13 20 29.98 1015 10 16 N/A
12:15 pm 12:15 Cloudy 68 19.8 62 16.7 82 82 ESE 14 22 29.97 1015 10 16 N/A
12:35 pm 12:35 Mostly Cloudy 71 21.6 63 17.3 77 77 SE 12 19 29.94 1014 10 16 N/A
12:55 pm 12:55 Mostly Cloudy 70 21.3 63 17.2 78 78 ESE 12 19 29.93 1013 10 16 N/A
1:15 pm 13:15 Mostly Cloudy 73 22.7 64 17.7 73 73 SE 16 26 29.91 1013 10 16 N/A
1:35 pm 13:35 Mostly Cloudy 73 22.9 64 17.5 72 72 SE 17 28 29.89 1012 10 16 N/A
1:55 pm 13:55 Cloudy 74 23.4 63 17.2 68 68 SE 16 26 29.89 1012 10 16 N/A
2:15 pm 14:15 Cloudy 73 22.7 62 16.7 69 69 SE 16 26 29.90 1012 10 16 N/A
2:35 pm 14:35 Cloudy 74 23.1 63 17 69 69 SSE 16 26 29.89 1012 10 16 N/A
2:55 pm 14:55 Cloudy 73 23 63 17 69 69 SSE 15 24 29.88 1012 10 16 N/A
3:15 pm 15:15 Cloudy 76 24.3 63 17.3 65 65 SE 17 28 29.85 1011 10 16 N/A
3:35 pm 15:35 Mostly Cloudy 76 24.2 63 17 64 64 SE 20 31 29.85 1011 10 16 N/A
3:55 pm 15:55 Cloudy 74 23.5 63 17 67 67 SSE 21 33 29.86 1011 10 16 N/A
4:15 pm 16:15 Cloudy 74 23.2 63 17 68 68 SE 21 33 29.83 1010 10 16 N/A
4:35 pm 16:35 Mostly Cloudy 74 23.2 62 16.9 68 68 SE 16 26 29.82 1010 10 16 N/A
4:55 pm 16:55 Cloudy 73 22.8 63 17.2 71 71 SE 14 22 29.81 1010 10 16 N/A
5:15 pm 17:15 Cloudy 73 22.7 64 17.6 73 73 SE 18 30 29.82 1010 10 16 N/A
5:35 pm 17:35 Cloudy 72 22.2 64 17.6 75 75 SE 12 19 29.82 1010 10 16 N/A
5:55 pm 17:55 Cloudy with Nearby Thunderstorms 72 22 64 18 78 78 SE 10 17 29.81 1010 10 16 N/A
6:15 pm 18:15 Cloudy 70 21.2 66 18.8 86 86 SE 10 17 29.81 1009 10 16 N/A
6:35 pm 18:35 Cloudy with Thunderstorms 69 20.3 67 19.5 95 95 S 14 22 29.81 1009 10 16 0.06 1.52
6:55 pm 18:55 Cloudy with Strong Thunderstorms 59 15.2 59 14.8 97 97 W 38 61 29.85 1011 1 2 0.62 15.75
7:15 pm 19:15 Cloudy with Strong Thunderstorms 58 14.7 58 14.7 100 100 NW 21 33 29.85 1011 3 5 0.43 10.92
7:35 pm 19:35 Cloudy with Thunderstorms 60 15.5 60 15.3 99 99 NNW 10 17 29.90 1012 7 11 0.55 13.97
7:55 pm 19:55 Cloudy with Nearby Thunderstorms 60 15.6 59 15.2 97 97 NNW 17 28 29.88 1012 7 11 0.60 15.24
8:15 pm 20:15 Cloudy with Thunderstorms 60 15.6 59 15.1 97 97 N 13 20 29.87 1012 10 16 0.04 1.02
8:35 pm 20:35 Cloudy with Rain 60 15.6 59 15 96 96 NNW 8 13 29.87 1012 10 16 0.08 2.03
8:55 pm 20:55 Cloudy with Heavy Rain 60 15.5 59 15.2 98 98 NNE 3 6 29.89 1012 7 11 0.14 3.56
9:15 pm 21:15 Cloudy with Light Rain 60 15.5 60 15.5 100 100 N N/A 29.91 1013 7 11 0.02 0.51
9:35 pm 21:35 Cloudy with Light Rain 60 15.5 60 15.5 100 100 ENE 12 19 29.88 1012 10 16 0.05 1.27
9:55 pm 21:55 Partly Cloudy 59 15.1 59 15.1 100 100 ENE 12 19 29.87 1011 10 16 0.05 1.27
10:15 pm 22:15 Partly Cloudy 59 15.2 59 15.2 100 100 E 15 24 29.87 1011 10 16 N/A
10:35 pm 22:35 Mostly Cloudy 59 15 59 15 100 100 E 18 30 29.86 1011 10 16 N/A
10:55 pm 22:55 Partly Cloudy with Nearby Thunderstorms 59 15.1 58 14.5 96 96 E 15 24 29.86 1011 10 16 N/A
11:15 pm 23:15 Mostly Cloudy 59 15.1 58 14.5 96 96 ENE 15 24 29.82 1010 10 16 N/A
11:35 pm 23:35 Cloudy with Thunderstorms 59 15.1 58 14.6 97 97 ENE 14 22 29.82 1010 10 16 N/A
11:55 pm 23:55 Cloudy 59 15.2 58 14.7 97 97 WNW 17 28 29.86 1011 10 16 N/A

Powered by AerisWeather